Flag for U.S.A. Weather past 2 weeks in Harrisburg, Pennsylvania, U.S.A.

Now
65 °F

Fog.


Feels Like: 65 °F
Forecast: 65 / 86 °F
Wind: 3 mph from West

Location: Capital City Airport

Current Time: May 28, 2015 at 6:28:15 AM

Latest Report: May 28, 2015 at 5:56 AM


Visibility: 4 mi

Pressure: 30.14 "Hg

Humidity: 94%

Dew point: 63 °F

Location of HarrisburgLocation

Historic Weather in Harrisburg — Graph

°F

Harrisburg temperature yesterday

Maximum temperature yesterday: 83 °F (at 11:56 AM)
Minimum temperature yesterday: 69 °F (at 1:59 PM)
Average temperature yesterday: 75 °F

Past Weeks' High & Low Weather Summary

 TemperatureHumidityPressure
High88 °F (May 18, 3:56 PM)97% (May 18, 4:56 AM)30.47 "Hg (May 18, 4:56 AM)
Low44 °F (May 14, 5:56 AM)19% (May 23, 5:56 PM)29.81 "Hg (May 19, 5:56 PM)
Average66 °F60%30.15 "Hg
* Reported May 13 4:56 AM — May 28 4:56 AM, Harrisburg, Weather by CustomWeather, © 2015

Note: Actual official high and low records may vary slightly from our data, if they occured in-between our weather recording intervals... More about our weather records

Advertising

Harrisburg weather history for previous 24 hours

 ConditionsComfort  
Time TempWeatherWind HumidityBarometerVisibility
4:56 AM
Thu, May 28
66 °FPassing clouds.3 mph93%30.12 "Hg8 mi
3:56 AM66 °FPassing clouds.3 mph93%30.11 "Hg10 mi
2:56 AM65 °FClear.No wind94%30.11 "Hg9 mi
1:56 AM66 °FClear.No wind93%30.12 "Hg8 mi
12:56 AM67 °FClear.No wind93%30.13 "Hg10 mi
11:56 PM
Wed, May 27
69 °FClear.No wind87%30.13 "Hg10 mi
10:56 PM72 °FClear.No wind81%30.13 "Hg10 mi
9:56 PM72 °FClear.6 mph81%30.13 "Hg10 mi
8:56 PM72 °FSunny.6 mph81%30.11 "Hg10 mi
7:56 PM75 °FSunny.3 mph74%30.10 "Hg10 mi
6:56 PM77 °FSunny.3 mph69%30.10 "Hg10 mi
5:56 PM77 °FSunny.7 mph71%30.10 "Hg10 mi
4:56 PM77 °FSunny.5 mph74%30.10 "Hg10 mi
3:56 PM73 °FOvercast.3 mph84%30.10 "Hg10 mi
2:56 PM71 °FThundershowers. Fog.8 mph87%30.12 "Hg3 mi
1:59 PM69 °FThunderstorms. Cloudy.5 mph93%30.12 "Hg3 mi
12:56 PM78 °FPartly sunny.7 mph69%30.11 "Hg10 mi
11:56 AM83 °FPassing clouds.7 mph61%30.11 "Hg10 mi
11:03 AM80 °FPartly sunny.N/A67%30.14 "Hg10 mi
10:56 AM80 °FScattered clouds.3 mph64%30.13 "Hg10 mi
9:56 AM79 °FScattered clouds.8 mph69%30.13 "Hg10 mi
8:56 AM76 °FPartly sunny.7 mph74%30.14 "Hg10 mi
7:56 AM74 °FPartly sunny.5 mph76%30.13 "Hg10 mi
6:56 AM74 °FPassing clouds.No wind76%30.12 "Hg10 mi
Weather by CustomWeather, © 2015

See weather overviewHow to use our weather pages